Skip Page Navigation
NASA JPL Caltech
NASA Logo - Jet Propulsion Laboratory + View the NASA Portal
+ Near-Earth Object (NEO) Program
Search JPL
JPL Home Earth Solar System Stars & Galaxies Technology
JPL Solar System Dynamics
BODIES ORBITS EPHEMERIDES TOOLS PHYSICAL DATA DISCOVERY FAQ SITE MAP
JPL Small-Body Database Browser
Search: [ help ]  
85559 Villecroze (1998 AC5)
Classification: Main-belt Asteroid          SPK-ID: 2085559
Ephemeris | Orbit Diagram | Orbital Elements | Physical Parameters | Discovery Circumstances ]

[ hide orbit diagram ]
Orbit Diagram
Note: Make sure you have Java enabled on your browser to see the applet. This applet is provided as a 3D orbit visualization tool. The applet was implemented using 2-body methods, and hence should not be used for determining accurate long-term trajectories (over several years or decades) or planetary encounter circumstances. For accurate long-term ephemerides, please instead use our Horizons system.
Orbit Viewer

Additional Notes: the orbits shown in the applet are color coded. The planets are white lines, and the asteroid/comet is a blue line. The bright white line indicates the portion of the orbit that is above the ecliptic plane, and the darker portion is below the ecliptic plane. Likewise for the asteroid/comet orbit, the light blue indicates the portion above the ecliptic plane, and the dark blue the portion below the ecliptic plane.

Orbit Viewer applet originally written and kindly provided by Osamu Ajiki (AstroArts), and further modified by Ron Baalke (JPL).


Orbital Elements at Epoch 2456400.5 (2013-Apr-18.0) TDB
Reference: MPO233901 (heliocentric ecliptic J2000)
 Element Value Uncertainty (1-sigma)   Units 
e 0.0891700 n/a  
a 2.6544579 n/a AU
q 2.4177599 n/a AU
i 10.07539 n/a deg
node 101.63383 n/a deg
peri 148.63652 n/a deg
M 57.88436 n/a deg
tp 2456146.5074884
(2012-Aug-07.00748840)
n/a JED
period 1579.6547489
4.32
n/a
n/a
d
yr
n 0.22789790 n/a deg/d
Q 2.8911559 n/a AU
  Orbit Determination Parameters
   # obs. used (total)      250  
   first obs. used      1998-??-??  
   last obs. used      2012-06-23  
   # oppositions      11  
   planetary ephem.      DE403  
   condition code      0  
   fit RMS      0.59  
   data source      MPC:mpn  
   producer      MPCLINUX  

Additional Information
 T_jup = 3.361 

Ephemeris | Orbit Diagram | Orbital Elements | Physical Parameters | Discovery Circumstances ]

Physical Parameter Table
Parameter Symbol Value Units Sigma Reference Notes
absolute magnitude H 15.8 mag n/a MPC47721  

85559 Villecroze           Discovered 1998 Jan. 8 by S. Banh at the Dominion Astrophysical Observatory.
The discoverer is thankful for having completed her undergraduate degree in physics and astronomy, giving her the opportunity to work as a student at the DAO and then at the Canada-France-Hawaii telescope. It was in Hawaii that she met her husband Jean-Louis Villecroze, who is the most important person in her life.
NOTE: some special characters may not display properly (any characters within {} are an attempt to place the proper accent above a character)
Reference: 20050407/MPCPages.arcLast Updated: 2005-04-15

Alternate Designations
 1998 AC5 = 1999 JP7 
Ephemeris | Orbit Diagram | Orbital Elements | Physical Parameters | Discovery Circumstances ]
ABOUT SSD CREDITS/AWARDS PRIVACY/COPYRIGHT GLOSSARY LINKS
FirstGov 2013-Jun-19 17:25 UT
(server date/time)  
NASA Home Page
Site Manager:   Donald K. Yeomans
Webmaster  Alan B. Chamberlin